Theta_e
313 313 313 312 312 312 313 313 313 313 312 313 312 313 312 311 310 311 311 310 310 309 311 313 315 319 325 329 331 333 335 336 335 333 332 332 331 331 331 331 330 330 330 329
314 313 313 313 312 312 311 313 313 312 312 313 313 312 312 312 311 311 311 310 311 312 311 313 313 313 316 322 328 331 332 334 336 335 333 331 331 331 331 331 330 330 330 330
314 313 313 312 311 311 312 313 312 313 312 312 311 310 310 311 310 311 311 312 312 312 311 310 311 312 312 312 313 319 327 330 333 335 335 332 332 332 331 331 330 331 330 330
313 310 312 312 311 311 311 311 311 312 311 310 310 307 312 309 310 310 311 309 309 310 310 307 308 311 313 313 311 310 312 317 323 330 335 334 330 330 329 329 329 329 329 328
311 310 311 313 312 311 312 310 311 312 311 312 311 308 308 311 312 310 309 309 309 309 309 308 310 312 312 312 313 311 309 309 314 319 330 334 332 329 328 329 329 328 328 327
310 309 311 312 310 311 310 310 311 311 310 310 308 308 309 310 310 310 309 310 310 309 308 308 310 311 312 313 315 315 309 307 309 314 321 327 332 331 328 328 330 328 327 327
310 310 309 309 310 310 311 310 312 312 311 312 307 310 309 310 309 309 308 311 310 309 308 309 309 310 310 311 312 316 318 314 310 314 318 321 326 327 328 327 326 326 327 328
311 312 309 309 311 311 310 310 314 313 315 311 306 309 309 309 307 306 307 310 310 309 308 308 309 309 309 310 311 313 317 319 317 316 318 321 322 324 324 324 322 323 324 325
309 312 309 309 309 310 311 310 311 309 304 313 309 309 310 307 307 306 307 310 310 309 307 307 307 308 308 307 308 309 310 313 317 316 316 317 318 319 319 319 319 319 320 320
310 311 310 308 309 309 310 308 309 311 307 310 309 310 308 310 308 307 308 310 308 307 306 305 306 306 306 306 306 307 307 308 308 309 310 312 314 314 314 316 316 316 316 316
309 312 311 309 309 310 309 309 309 309 314 315 313 309 307 310 309 307 308 310 307 307 306 304 304 305 304 304 303 303 304 304 304 304 304 305 305 305 305 305 304 305 305 305
309 312 312 310 308 308 308 310 310 311 311 308 313 310 310 307 309 310 310 309 308 307 305 304 304 304 302 301 301 300 300 301 301 301 301 301 301 301 301 301 301 301 301 301
308 313 313 312 309 309 309 309 309 310 312 311 310 309 308 308 311 310 310 308 308 307 305 303 303 302 301 300 299 299 299 299 299 299 299 299 299 299 298 298 299 299 299 299
309 315 313 312 311 309 310 309 308 309 313 312 311 310 309 309 311 310 309 307 307 306 305 303 302 301 300 299 298 298 297 297 297 297 297 297 297 297 297 297 297 297 297 297
310 310 311 313 313 312 309 310 309 309 310 309 309 309 308 309 310 310 308 307 308 306 305 303 301 299 299 298 297 297 296 296 296 296 296 296 296 296 296 296 296 295 295 295
311 310 310 311 312 312 311 310 309 309 309 308 307 307 307 308 308 308 309 308 307 306 304 302 300 299 298 297 296 296 295 295 295 295 295 295 295 295 294 294 294 294 294 294
312 310 309 310 311 310 309 309 310 309 308 308 308 308 308 308 309 309 308 308 307 305 304 301 298 297 297 296 296 295 295 294 294 294 294 294 294 294 293 293 294 293 293 293
310 310 313 311 310 313 309 307 310 310 309 308 308 309 308 307 307 308 307 307 306 304 301 298 297 296 296 295 294 294 294 294 294 293 293 293 293 293 293 293 293 292 292 292
310 311 312 314 313 312 310 306 309 310 310 309 309 308 308 307 306 307 307 306 305 302 299 297 296 296 295 294 294 294 293 293 293 292 292 292 293 293 292 292 291 291 291 292
309 310 313 314 317 314 309 306 308 308 311 308 308 308 308 306 308 307 304 302 300 298 297 296 295 294 294 293 294 293 293 292 291 291 291 291 291 290 290 290 290 290 290 290
310 310 314 313 315 309 304 304 307 308 308 297 307 308 306 306 307 302 299 298 297 296 295 295 294 293 293 293 293 292 291 290 290 290 290 290 289 289 288 288 288 288 289 289
308 309 310 312 310 307 301 304 306 305 301 300 305 307 303 301 300 298 297 295 295 294 294 293 292 291 291 292 292 291 290 289 289 288 288 287 287 287 288 288 288 288 287 286
309 308 309 308 306 303 300 304 301 301 300 301 303 304 301 298 297 295 295 293 293 292 292 292 290 289 289 290 290 289 287 287 287 287 287 287 287 287 286 286 286 285 284 283
301 299 306 304 300 301 300 300 300 300 301 299 300 300 298 297 295 294 293 291 291 290 290 290 289 287 285 286 287 287 286 285 286 285 286 286 286 286 285 284 283 282 281 282
300 300 300 298 299 299 299 299 301 299 297 297 298 297 297 294 293 292 291 290 289 289 289 289 289 287 285 284 285 284 284 284 284 285 284 284 284 283 283 282 281 281 281 281
296 300 302 301 300 301 301 299 298 297 296 294 294 295 294 292 292 290 290 290 287 286 287 287 287 286 283 283 282 282 282 282 283 283 282 281 280 279 278 278 278 279 279 280
Wind_Speed
7 6 12 11 10 7 5 8 6 6 2 4 7 5 9 8 8 8 7 7 8 9 12 17 22 20 18 19 20 23 25 25 24 25 25 24 25 24 24 23 25 22 19 18
6 12 10 10 11 4 5 9 6 5 6 3 4 9 8 8 7 8 9 9 8 7 7 10 11 11 16 17 18 19 22 24 26 25 23 22 23 22 24 25 23 25 26 24
8 7 9 7 4 6 4 5 6 4 5 2 2 7 8 9 10 8 8 4 1 3 5 6 10 11 7 9 11 15 18 21 23 26 24 21 20 19 20 24 26 26 25 25
5 3 9 9 7 7 4 6 9 10 7 3 4 4 4 7 8 6 5 5 5 3 6 6 6 8 7 2 5 11 15 18 18 18 25 26 21 20 21 23 23 24 25 24
5 6 7 5 7 8 4 8 6 4 3 2 3 1 6 6 4 7 8 7 8 7 6 8 9 9 6 3 3 7 12 18 18 17 15 21 22 19 18 17 19 19 20 19
3 2 2 2 5 4 8 8 6 2 3 1 7 7 4 5 5 5 7 8 8 7 7 10 10 11 8 6 5 3 0 5 12 14 16 12 14 16 17 18 19 17 15 16
4 3 2 1 8 3 4 7 3 2 2 5 7 5 9 3 2 8 10 9 8 7 7 8 8 11 9 10 10 10 9 8 4 8 6 6 9 9 11 11 10 7 6 11
7 4 8 5 4 8 7 6 5 6 4 3 5 6 6 2 8 9 10 10 8 8 7 8 9 11 10 12 13 12 13 13 10 9 7 5 4 2 6 6 7 8 8 5
8 2 3 4 2 5 6 5 1 7 3 4 5 6 1 6 5 6 8 9 8 7 7 7 11 12 12 13 14 14 15 17 16 14 11 8 4 3 1 3 4 5 6 7
2 5 3 0 0 2 3 6 4 2 4 3 5 4 5 7 9 9 9 9 8 7 7 7 10 12 12 13 15 16 16 18 17 17 16 15 13 11 9 6 4 2 2 4
1 4 0 4 6 7 2 3 3 5 5 5 3 6 3 5 10 11 9 9 9 8 7 7 11 12 13 14 15 15 16 17 18 18 17 17 16 14 12 12 11 9 7 7
3 5 4 3 2 3 3 4 5 4 5 1 4 5 2 5 8 12 10 9 8 8 7 7 12 13 14 14 15 16 16 18 17 17 18 18 16 15 15 15 14 12 12 11
8 2 3 4 3 3 4 4 5 4 3 5 5 5 2 1 6 8 10 9 9 9 9 7 11 13 13 14 16 17 16 17 15 17 18 19 18 17 16 15 14 13 12 12
5 4 7 10 8 8 6 7 7 6 3 4 7 4 5 7 8 8 8 8 8 7 8 7 7 12 14 15 16 16 16 15 14 17 18 18 16 15 14 14 14 14 14 14
6 8 5 4 3 3 5 15 15 11 21 10 19 12 9 10 10 12 9 10 11 10 8 8 7 11 15 16 16 14 14 13 13 16 16 16 13 13 13 14 14 14 14 15
1 2 4 3 5 5 2 7 17 21 22 14 12 7 7 12 8 9 12 12 12 10 9 8 9 15 15 16 15 13 12 12 12 14 15 13 12 12 13 13 14 14 14 14
7 6 3 3 5 4 4 16 15 14 20 21 16 17 5 5 8 10 11 12 12 12 10 11 11 15 18 17 16 14 13 12 13 13 12 11 11 12 12 13 13 14 15 15
7 5 2 4 3 4 8 3 14 21 10 19 17 4 7 8 9 7 8 12 11 13 13 11 17 20 20 18 16 15 14 13 12 12 11 10 10 12 12 13 13 15 16 19
0 5 4 4 7 5 5 5 8 10 13 11 16 6 6 4 4 2 0 8 11 13 17 20 24 25 22 19 17 16 15 12 11 10 9 9 10 11 12 14 16 18 22 24
5 5 5 5 6 12 1 4 6 7 11 7 15 12 9 8 4 5 6 9 10 20 24 26 29 26 22 18 17 17 14 11 9 7 6 7 9 12 13 15 17 19 21 24
7 5 11 6 4 6 3 5 3 7 5 2 2 5 7 6 3 6 9 8 20 22 25 28 28 25 20 18 17 17 13 10 6 4 4 6 8 11 13 16 18 21 23 26
5 6 4 4 3 7 5 4 8 4 2 5 3 3 7 8 9 11 10 11 16 21 23 27 27 22 18 17 16 15 11 6 3 1 4 6 9 12 14 17 18 19 22 22
2 3 6 6 5 2 7 3 4 2 3 1 4 3 7 10 6 11 11 11 13 20 23 26 27 23 16 15 14 15 10 5 3 2 4 7 10 13 14 17 19 19 18 16
2 1 2 3 2 3 5 3 3 2 3 3 3 5 7 8 11 10 10 10 13 18 21 25 25 21 16 13 11 10 7 4 2 3 5 8 11 13 15 16 17 17 16 17
3 7 5 3 2 1 4 3 2 4 4 2 3 5 8 10 9 10 10 9 16 19 22 24 23 21 17 13 10 7 5 3 2 4 6 8 11 14 17 18 18 18 19 18
4 5 5 4 5 4 3 3 6 7 6 7 6 5 5 8 11 8 10 16 20 22 24 22 20 19 17 13 10 7 5 4 4 5 6 9 11 13 15 18 24 20 18 17
Wind_Direction
208 189 205 209 222 254 177 199 176 126 119 145 219 243 245 204 193 207 240 236 192 210 215 212 200 205 209 208 206 204 201 205 206 205 216 219 222 225 226 226 226 228 221 227
165 212 198 223 209 228 262 190 200 56 104 104 226 240 252 243 236 201 208 225 223 194 178 133 150 180 203 212 214 214 212 210 207 205 219 218 225 229 231 233 238 234 237 239
174 176 228 156 156 174 224 184 148 134 127 268 338 277 234 228 225 216 210 190 53 83 119 138 166 173 192 215 228 227 223 222 219 216 216 221 222 230 228 232 239 241 246 248
224 201 166 161 179 170 168 87 111 125 139 206 178 267 234 194 196 188 205 200 219 119 71 61 53 95 92 222 222 221 222 226 227 222 215 218 220 227 237 243 248 249 252 253
174 149 160 178 181 188 161 114 123 129 137 93 212 95 255 107 202 190 185 142 95 85 94 96 80 77 66 345 280 243 232 227 220 225 222 212 226 231 235 244 248 252 254 256
73 303 152 141 45 134 145 106 90 120 129 273 203 168 262 175 198 105 121 115 125 133 113 100 107 101 79 66 73 51 136 219 212 215 223 229 210 230 224 238 242 245 253 254
127 118 83 152 85 15 144 139 121 158 174 215 335 181 242 156 94 151 142 131 126 147 121 102 94 88 75 64 63 71 73 70 163 186 202 230 231 245 236 238 255 280 280 268
159 207 172 192 153 171 202 183 155 172 178 190 345 231 249 89 115 95 112 121 123 109 105 99 94 90 78 68 69 77 79 78 96 119 137 139 158 177 220 232 256 258 261 282
173 108 60 55 46 143 195 213 110 105 20 79 205 264 228 142 136 132 136 136 135 116 112 107 92 88 88 80 75 81 84 83 83 82 87 85 88 90 87 247 267 263 278 294
178 110 337 257 188 93 169 151 78 355 127 219 243 241 229 195 195 175 166 155 135 127 121 106 100 98 89 86 85 84 86 86 90 96 97 98 99 99 103 111 91 65 333 309
93 96 261 142 210 162 150 188 201 144 159 166 170 253 246 202 172 169 169 150 150 148 140 127 115 108 100 95 92 91 90 92 91 91 91 89 85 86 87 80 68 60 40 26
133 102 145 174 121 54 347 193 164 145 227 203 151 265 12 3 141 150 153 140 137 134 134 129 128 118 106 99 92 90 90 85 85 90 90 86 85 80 76 69 63 55 47 35
171 168 93 28 21 47 223 190 227 112 81 198 140 256 330 305 123 137 143 141 140 143 134 131 128 118 111 103 96 91 86 86 88 92 89 84 79 75 70 65 59 54 50 40
114 146 182 197 210 132 187 191 205 181 134 180 219 161 213 192 170 152 148 143 146 146 143 142 125 120 113 107 102 95 91 89 92 90 86 81 74 69 62 56 49 41 34 25
165 190 165 73 76 108 176 189 191 205 223 192 232 219 197 193 186 182 156 151 158 155 155 146 131 128 125 115 106 102 101 102 103 94 86 78 71 63 55 49 43 36 29 22
167 182 114 37 83 83 63 201 195 207 224 234 250 253 181 188 162 155 169 166 169 162 158 144 134 134 127 125 119 119 112 106 100 90 82 77 69 59 49 41 33 25 16 8
146 131 119 223 111 85 325 218 198 213 224 217 230 227 160 137 160 172 177 175 173 166 156 144 141 137 137 134 137 127 121 115 101 91 83 72 60 48 37 26 16 9 359 351
140 108 74 119 105 178 250 150 195 207 213 223 237 128 169 180 183 178 167 166 165 157 149 147 141 137 143 139 136 132 126 117 104 90 75 61 45 31 19 10 1 352 347 344
36 128 114 159 208 296 229 203 164 171 241 222 227 171 151 108 86 243 224 162 161 151 145 143 147 147 145 144 142 135 128 119 107 86 63 41 24 15 4 358 350 347 342 339
74 63 156 166 190 206 227 175 132 94 266 217 204 195 168 139 183 220 156 121 121 135 139 138 146 148 146 144 143 137 127 119 96 76 49 21 8 357 351 347 344 341 339 334
142 140 193 177 205 279 177 147 134 127 239 220 146 155 141 188 204 133 119 110 129 137 136 142 146 146 143 144 144 131 129 111 97 72 24 359 350 346 346 343 344 340 336 329
149 141 165 140 172 263 161 74 161 206 88 155 142 131 137 125 122 130 126 129 133 134 138 148 139 138 139 144 146 135 128 131 134 6 347 344 345 345 341 336 336 335 335 332
173 180 163 176 205 214 187 120 136 101 128 135 110 98 118 126 134 138 137 136 136 135 143 152 145 141 141 147 155 150 154 165 196 294 328 340 342 340 342 341 338 336 334 328
319 307 142 81 313 195 201 100 103 94 83 101 107 133 138 143 146 145 143 139 140 144 148 155 152 148 143 151 155 163 167 195 258 327 338 339 336 335 334 330 332 327 320 309
178 145 164 280 153 218 261 255 144 143 125 143 157 166 164 147 155 151 148 148 152 155 159 163 162 161 161 168 172 179 202 227 276 319 327 329 331 328 326 326 327 321 314 307
188 173 173 211 183 146 127 208 169 166 186 185 162 148 138 150 158 149 158 162 157 158 164 166 170 169 170 178 188 204 218 247 279 301 316 321 323 325 327 326 322 323 315 304